Cloud_Cover
100 100 100 100 100 100 100 100 100 100 100 100 100 99 97 100 100 100 100 100 100 100 74 6 100 100 97 61 0 79 11 21 46 57 13 15 28 5 0 0 1 0 0 0 0 5 4
99 100 100 100 100 100 100 100 100 100 100 100 100 100 50 100 100 100 100 100 100 100 100 9 100 100 86 31 2 100 100 54 55 55 50 37 41 4 0 0 0 0 4 0 0 29 14
100 100 100 97 100 100 100 100 100 100 98 100 100 100 100 100 100 100 100 100 99 100 32 87 100 100 100 27 5 83 100 100 100 100 46 5 65 10 0 1 3 0 21 0 3 92 7
100 99 100 100 100 100 100 100 100 100 100 100 100 100 100 100 100 100 100 100 100 83 100 98 100 100 100 95 6 11 100 100 100 100 98 89 27 0 1 5 4 0 41 5 5 5 10
100 98 100 99 100 100 100 100 100 100 100 100 100 100 100 100 100 100 100 100 93 96 85 100 100 100 100 95 5 17 6 78 100 100 73 92 5 5 11 50 4 5 5 69 73 5 6
99 65 100 100 100 100 100 100 100 100 100 100 100 100 100 100 100 100 100 100 100 98 52 70 88 92 100 100 42 73 8 6 97 100 83 7 49 100 23 66 4 1 4 72 13 39 58
88 100 100 100 100 100 100 100 100 100 100 100 100 100 100 100 100 100 100 100 18 86 15 100 99 100 100 100 92 5 5 5 55 76 5 27 100 54 68 100 6 14 4 11 57 7 5
100 98 100 100 100 100 100 100 100 100 100 100 100 100 100 100 100 100 100 100 53 5 52 100 100 100 100 100 100 100 43 28 31 94 9 27 100 6 100 80 21 6 7 6 14 11 2
100 100 96 100 100 100 100 100 100 100 100 100 100 100 100 100 100 100 100 100 100 72 6 100 100 38 100 80 98 100 58 95 30 59 100 81 100 76 100 100 31 49 37 6 88 57 5
100 100 100 100 100 100 100 100 100 100 100 100 100 100 100 100 100 100 100 100 100 100 100 100 100 100 100 100 62 100 100 100 75 96 100 51 100 100 100 100 35 95 5 6 69 97 12
97 100 83 82 100 100 100 100 100 100 100 100 100 100 100 100 100 100 100 100 85 83 100 100 100 100 100 100 100 100 100 6 50 99 5 100 100 100 100 100 60 97 14 47 21 100 42
9 30 100 100 100 100 100 100 100 100 100 100 100 100 100 100 100 100 100 100 100 100 85 97 100 100 100 100 100 100 100 100 98 73 91 100 100 100 100 100 100 97 46 20 100 100 23
5 33 56 79 100 100 100 100 100 100 100 100 100 100 100 100 100 100 100 100 100 100 100 100 100 100 100 100 100 100 100 97 99 100 100 100 100 100 100 100 100 100 65 20 47 88 76
5 5 24 5 100 100 100 100 100 100 100 100 100 100 100 100 100 100 100 100 99 100 100 100 100 100 100 100 100 100 100 100 7 100 100 93 100 100 100 100 100 100 86 8 64 71 86
0 0 5 9 100 100 100 100 100 100 100 100 100 100 100 100 40 86 100 100 97 100 100 100 91 100 94 21 99 100 100 100 31 5 84 93 100 100 100 100 100 100 100 38 5 99 47
4 0 21 11 100 100 100 100 100 100 100 100 100 100 94 88 18 56 100 96 97 100 96 5 13 5 77 100 72 87 100 100 99 71 100 87 72 100 100 98 100 100 100 64 45 5 65
1 89 100 97 100 100 100 100 100 100 100 100 100 100 96 99 97 96 97 56 88 71 61 33 61 73 22 91 54 18 99 100 100 100 100 90 17 99 93 96 100 100 100 99 20 12 99
5 100 100 100 86 100 100 100 100 100 100 100 100 100 87 100 80 82 83 26 43 0 2 5 9 100 34 74 94 73 90 100 100 100 100 100 100 100 100 100 100 86 100 93 91 96 42
91 38 100 100 100 100 100 100 100 100 100 100 100 100 100 100 88 98 28 47 37 5 1 3 4 1 14 8 34 32 86 100 96 100 100 100 64 92 100 100 97 99 100 100 52 8 5
86 100 100 100 100 100 100 100 100 100 100 100 100 100 100 100 14 49 100 89 100 48 6 4 1 0 0 2 8 40 18 81 100 100 100 100 100 100 100 100 100 98 100 100 70 5 58
100 100 100 100 100 100 100 100 100 100 100 100 100 100 90 100 100 91 85 86 89 100 100 58 0 1 3 1 0 0 99 93 82 100 90 100 100 100 100 100 100 100 100 100 100 8 5
100 100 100 100 100 100 100 100 100 100 100 100 100 100 100 83 100 100 100 100 100 85 93 55 5 6 0 0 0 0 5 0 99 84 100 99 94 100 100 100 100 100 85 97 95 96 46
100 100 100 100 100 100 100 100 100 100 100 100 100 95 100 100 93 100 95 100 100 100 100 18 5 5 3 1 0 0 2 5 4 74 100 100 100 99 39 100 100 99 20 100 95 100 41
100 100 100 100 100 100 100 100 100 100 100 100 100 100 100 100 24 46 99 100 55 43 39 68 100 79 100 76 5 0 4 45 1 2 42 100 100 100 93 100 100 32 49 58 41 100 99
100 100 100 100 100 100 100 100 100 100 100 100 100 100 100 98 42 54 25 27 9 5 5 5 6 100 100 100 36 2 5 5 1 0 37 100 100 100 100 90 66 82 85 95 62 68 100
100 100 100 86 55 67 96 100 100 100 100 100 100 100 100 100 34 97 69 43 36 52 84 5 6 44 71 31 45 1 4 3 3 5 57 100 100 100 100 100 57 99 100 100 100 94 100
100 100 100 85 73 61 96 10 37 44 100 100 100 100 100 100 12 79 22 38 99 100 64 98 82 27 59 6 5 3 0 4 4 6 78 90 100 100 100 100 89 77 88 100 100 99 100
100 100 100 100 100 100 99 100 98 51 69 98 100 100 100 100 99 95 48 94 100 87 29 65 99 27 50 5 4 0 0 3 2 4 5 46 100 100 100 100 100 100 100 100 85 96 100
100 100 95 96 96 95 100 100 100 100 100 88 100 100 100 100 100 100 89 100 100 100 100 100 100 100 97 5 5 2 0 2 0 4 36 81 100 100 100 100 100 100 100 98 100 88 100